Temp_Advection
nan nan nan nan nan nan nan nan nan nan nan nan nan nan nan nan nan nan nan nan nan nan nan nan nan nan nan nan nan nan nan nan nan nan nan nan nan nan nan nan nan nan nan nan
nan -0 -2 -1 0 0 0 0 -0 -0 -0 -0 -0 -0 -1 -1 -1 -1 -0 2 -1 -1 -0 0 0 0 0 -0 -0 -0 -0 0 0 0 0 -0 0 -0 0 1 0 0 0 nan
nan -0 -0 -0 -0 -0 0 0 0 -0 -0 -0 -0 -0 -0 -1 -0 -1 1 2 -1 -1 -0 0 0 0 0 -0 -0 -0 -0 -0 0 0 0 0 0 0 0 0 0 1 1 nan
nan -0 0 0 0 0 -0 0 0 -0 -0 -0 -0 -0 -2 -1 0 0 2 1 -0 -0 -0 0 1 1 0 0 0 0 0 0 0 0 0 0 1 0 -0 0 0 0 0 nan
nan -0 0 -0 -0 0 0 -0 -0 0 0 -0 0 -0 -1 -0 1 -0 0 2 0 0 -0 -0 0 0 0 0 0 0 -0 -0 0 0 0 0 1 1 1 0 0 0 0 nan
nan -1 0 -0 -0 0 0 0 -0 0 0 0 -1 -0 -0 -1 0 -1 -0 0 -0 -0 -0 -0 -0 0 0 0 -0 -0 -0 -0 -0 0 0 0 0 1 1 1 1 -0 0 nan
nan -0 -0 -0 0 0 0 -0 -0 -0 -0 -0 -0 0 -0 -0 0 -1 -1 -0 -0 -0 -0 -0 -0 -0 -0 -0 -0 -0 -0 -0 -0 -0 -0 -0 1 0 0 1 2 1 0 nan
nan -1 -0 -0 -0 0 0 -0 -0 0 -0 -1 -0 0 -0 -0 0 0 -0 -1 -0 -0 -0 -0 -0 0 0 -0 -0 -0 -0 -0 0 -0 0 -0 0 1 0 0 0 0 0 nan
nan -0 -0 0 -0 -0 0 -0 -0 0 0 0 0 -0 -0 -0 -0 -0 1 1 -0 -0 -0 -0 -0 -0 0 0 0 0 0 0 0 0 0 -0 0 1 0 0 0 0 1 nan
nan -0 -0 -0 -0 -0 0 -0 -0 0 0 -0 -0 0 0 0 0 -0 0 1 0 -0 -0 -0 -0 -0 0 0 0 0 -0 0 1 0 0 -0 1 1 0 -0 -0 1 1 nan
nan -0 -0 -0 0 0 0 0 0 0 0 0 -0 -0 -0 -0 0 -0 0 0 0 -0 -0 -0 -0 -0 -0 -0 0 0 0 0 0 1 0 0 1 1 0 -0 -0 1 1 nan
nan -0 -0 -0 -1 -0 0 0 0 0 0 0 -0 -2 0 -0 0 -0 0 0 -0 -0 0 0 0 0 0 -0 -0 0 0 0 -0 1 1 0 0 0 0 0 1 1 1 nan
nan -0 -0 -1 -0 0 0 -0 0 0 0 0 0 -0 0 0 0 0 0 -0 -0 -0 0 0 -0 -0 -0 -0 -0 0 1 0 -0 0 0 0 0 0 -0 0 1 1 0 nan
nan 0 -0 -0 -0 -0 0 -0 -0 0 0 -1 -0 -1 -0 -0 0 0 0 -0 -0 -0 0 -0 -0 -0 -0 -0 -0 0 0 0 0 0 -0 0 0 0 0 0 1 1 0 nan
nan 0 0 -0 -0 -0 -0 -0 -0 -0 0 -0 -1 -0 -0 0 0 -0 -0 0 0 0 -1 -1 -1 -0 -0 -0 -0 -0 0 0 0 -0 -0 0 0 0 0 0 1 0 1 nan
nan 0 0 -1 -1 0 0 -0 -0 -0 -0 -0 -0 -1 -0 0 0 0 -0 0 -0 -1 -0 -0 -0 -0 -0 -0 -0 -1 -1 -0 0 0 -0 0 -0 0 0 0 1 1 1 nan
nan 0 0 -1 -0 0 0 -1 -1 -1 -0 0 -0 -1 0 0 -0 -0 0 -0 -0 -0 -0 -0 -0 -0 -0 -0 0 -0 -1 -1 -1 -0 0 -0 -0 -0 0 1 1 1 1 nan
nan 0 -0 -0 0 -0 -1 -0 0 0 0 -0 -0 0 -0 -0 0 0 -0 -0 -0 -0 -0 -0 -0 -0 -1 0 0 0 -0 -1 -1 -0 -1 -0 -0 -0 -0 0 1 1 1 nan
nan -0 -0 -0 -0 -0 -1 -0 0 0 0 0 0 0 0 -0 -0 -1 -0 -0 -0 -0 0 0 0 0 -0 -0 1 -0 0 0 -1 -0 -0 -1 0 -0 -0 0 1 1 1 nan
nan 0 0 0 -0 -0 -0 0 0 0 0 0 0 -0 -0 -0 -0 -0 0 -0 0 0 0 0 0 1 0 0 1 0 -1 -0 -0 -0 -0 -0 1 1 0 0 0 0 0 nan
nan 0 -0 -0 -0 -0 -1 -0 -0 1 0 0 0 -0 -1 -0 -0 0 -0 -0 -0 -0 -0 0 0 0 0 1 1 1 0 0 -1 -0 -1 -0 1 0 0 0 0 0 0 nan
nan -0 -0 0 -0 -1 -1 0 1 -0 0 0 0 -0 -0 0 0 -0 -0 -0 -0 -0 -0 -0 -0 -0 0 1 1 1 1 0 -0 -1 -0 0 0 -0 0 0 0 0 0 nan
nan -0 -0 -0 -0 -0 0 0 -0 -0 -0 0 -0 -0 -0 -0 -0 -0 -0 -0 -0 -0 -0 -0 -0 -0 -0 0 0 1 0 0 -0 -0 0 0 -0 -0 0 0 0 0 0 nan
nan -0 0 0 -0 0 0 0 0 0 -0 -0 -0 -0 -0 -0 -0 -0 -0 -0 -0 -0 0 -0 -0 -0 -0 -0 1 1 0 0 -0 -1 0 0 -0 0 0 0 -0 0 0 nan
nan 0 0 -0 -0 -0 0 -0 0 -0 -0 -0 -0 -0 -0 -0 -0 -0 -0 -0 0 0 -0 -0 -0 -0 -1 -1 0 0 1 0 -0 -0 -0 0 0 0 0 0 -0 0 0 nan
nan nan nan nan nan nan nan nan nan nan nan nan nan nan nan nan nan nan nan nan nan nan nan nan nan nan nan nan nan nan nan nan nan nan nan nan nan nan nan nan nan nan nan nan
Wind_Speed
12 2 7 11 7 3 4 4 7 7 9 5 6 6 10 17 23 19 22 14 18 25 16 11 9 7 6 1 8 7 10 11 10 11 16 17 22 23 27 26 25 23 23 24
4 6 11 6 2 2 4 5 8 8 7 7 8 9 11 14 17 23 28 22 32 28 23 18 12 12 10 8 13 8 2 2 5 9 13 15 18 20 24 25 25 26 28 27
6 3 5 3 4 2 5 5 6 5 7 7 8 7 8 10 7 12 11 28 32 29 25 20 13 13 11 9 10 8 6 6 8 7 8 14 19 21 23 26 27 28 30 29
6 10 3 4 6 7 4 5 6 8 6 3 6 5 16 15 15 5 24 32 30 29 25 20 14 11 8 9 11 10 7 4 3 7 10 13 17 21 24 26 26 27 29 30
6 6 8 8 7 4 5 5 4 5 8 4 15 3 7 6 15 10 8 25 26 26 23 21 14 8 6 8 7 4 1 7 12 15 16 16 18 21 25 27 27 27 28 31
8 15 4 8 6 4 3 5 7 6 2 1 17 5 4 8 4 13 13 26 25 22 18 14 10 6 2 4 8 11 14 17 21 23 26 26 27 27 24 21 20 22 24 29
5 8 7 8 5 3 4 2 3 3 2 6 6 6 7 5 8 16 17 25 21 14 9 6 8 5 2 7 10 13 16 18 20 22 25 27 31 26 24 22 19 19 19 23
5 6 3 2 6 6 3 6 4 5 3 8 1 5 5 4 13 23 26 24 20 17 14 12 6 3 3 3 7 11 12 16 23 25 26 23 30 32 26 23 18 18 20 19
3 5 4 7 3 7 4 3 6 4 5 4 5 6 2 8 7 11 19 25 22 17 11 9 6 3 11 14 14 13 14 19 23 25 24 26 29 32 29 27 22 21 24 20
3 6 8 13 4 2 5 3 2 3 5 5 5 5 5 4 7 7 8 16 16 15 8 3 9 11 12 12 15 19 23 27 24 20 26 30 30 27 25 27 26 24 20 19
7 1 0 5 2 5 4 2 4 5 4 4 1 5 3 7 6 7 7 13 11 5 5 7 8 10 12 16 21 23 22 18 20 26 27 23 30 23 19 29 26 24 20 21
1 2 3 5 9 12 9 8 6 6 6 5 3 15 6 8 9 13 12 8 4 6 6 7 12 14 13 13 18 23 21 17 20 23 23 20 20 22 22 24 24 19 19 17
4 2 4 6 5 3 5 7 10 9 3 12 9 10 5 7 8 13 10 4 6 4 9 10 9 7 13 16 20 20 17 16 19 20 23 20 21 18 21 22 19 20 21 16
11 8 10 13 8 3 5 11 11 5 2 10 14 21 9 11 4 7 2 5 13 12 14 4 5 8 11 14 14 15 13 15 19 21 21 23 20 21 18 20 22 21 21 21
6 9 11 18 20 19 20 20 13 16 18 10 26 19 9 5 3 5 6 12 15 3 7 8 9 11 13 12 14 17 13 16 16 19 23 24 22 18 20 20 22 22 21 22
4 3 5 14 18 16 21 23 20 22 23 18 25 32 10 11 12 13 17 13 6 8 7 4 5 7 10 12 18 22 23 26 31 22 25 24 24 25 24 24 23 23 20 20
8 4 4 10 8 7 14 22 23 22 20 18 22 29 8 7 7 16 6 8 10 8 3 6 11 15 19 21 24 20 20 22 23 22 22 22 22 24 24 21 19 21 22 22
9 7 3 2 1 6 8 5 12 18 18 16 19 18 11 16 18 8 7 7 6 2 6 12 17 20 24 25 23 22 22 25 25 16 19 22 23 17 21 20 22 22 23 23
11 9 4 4 7 8 15 7 4 6 11 8 6 5 5 10 11 13 12 9 6 8 12 16 20 22 21 29 29 25 29 28 26 24 22 25 21 23 22 20 20 22 21 23
12 10 6 4 5 8 4 3 5 5 16 7 4 4 6 5 3 3 7 9 10 13 16 20 23 25 23 26 29 28 31 30 28 30 25 24 23 26 22 20 18 16 17 19
6 5 13 13 9 6 12 3 4 7 3 8 14 11 11 4 2 7 14 14 15 19 22 22 22 27 28 27 28 30 28 27 27 17 23 23 22 20 19 14 11 14 16 19
11 10 5 7 7 11 14 8 12 6 10 10 7 5 4 5 9 11 11 14 15 16 20 24 27 27 26 26 27 29 30 24 13 19 18 15 13 14 14 10 10 10 10 11
6 9 7 8 5 3 4 5 15 12 14 7 3 3 5 7 8 11 14 16 20 22 22 22 21 21 18 21 26 26 23 25 19 15 9 5 11 13 11 9 10 8 7 8
8 10 3 6 8 4 2 9 4 3 4 2 3 4 5 7 10 13 14 15 18 20 18 14 20 22 24 27 29 19 24 12 23 15 7 5 6 9 7 6 6 4 5 6
5 12 9 7 10 5 9 5 6 5 4 3 2 3 5 9 13 14 18 18 12 6 12 15 20 25 27 29 23 22 22 18 15 10 5 3 2 7 5 4 3 1 2 3
5 5 8 3 6 9 3 3 3 4 6 6 5 7 9 13 9 5 2 4 7 12 14 18 21 22 23 19 13 19 18 20 24 12 7 4 5 5 3 3 3 2 3 2
Wind_Direction
281 302 225 240 231 270 325 314 303 298 302 347 229 242 263 266 266 261 254 211 167 129 128 138 154 151 187 250 74 170 218 239 233 239 239 270 270 270 267 262 274 273 263 274
293 251 239 268 275 281 309 315 297 293 324 0 323 292 273 271 264 256 248 227 141 123 115 114 118 134 122 88 88 102 132 277 296 274 265 267 269 270 272 268 274 279 275 276
189 269 196 20 325 335 272 233 277 303 337 333 340 298 275 284 321 77 176 162 141 137 132 130 137 133 136 146 144 163 198 262 296 310 280 264 261 269 267 264 267 271 268 270
216 261 203 235 248 247 283 352 357 345 18 269 37 284 303 282 286 125 120 120 130 130 127 129 138 141 148 159 177 190 186 182 309 323 301 281 270 270 271 269 272 272 272 259
247 197 205 226 240 323 280 33 345 314 293 10 281 255 266 276 274 151 121 129 125 132 133 124 125 149 143 148 151 148 4 344 338 329 321 311 292 280 273 270 271 271 267 255
233 259 243 217 230 202 303 310 301 261 220 185 259 194 263 271 217 138 132 126 123 122 124 128 132 144 131 19 343 331 327 321 318 317 318 314 312 301 283 274 271 270 269 262
284 262 233 199 197 252 218 49 319 329 22 210 346 333 253 294 161 162 148 139 144 150 154 148 131 152 311 333 333 329 325 318 311 305 305 304 308 305 289 282 279 271 262 262
236 316 261 30 163 172 172 143 165 267 256 287 345 248 254 60 86 116 136 142 148 147 151 159 159 247 278 344 337 322 316 312 310 303 298 296 306 297 298 296 293 293 284 266
293 254 351 139 78 135 231 221 214 277 266 289 213 243 25 92 74 113 133 139 147 163 170 177 156 332 323 325 322 311 305 307 308 292 285 289 297 289 292 298 296 306 303 280
280 296 230 277 42 342 161 167 360 322 294 266 242 228 237 153 145 134 134 146 138 138 136 13 338 330 318 315 314 312 307 305 302 296 290 286 283 284 289 287 284 291 283 274
11 15 31 8 194 233 291 241 224 189 198 238 277 257 178 142 128 137 131 132 123 112 358 342 341 327 311 307 305 303 294 277 285 284 293 294 281 268 285 280 279 278 266 279
27 51 273 245 313 294 261 270 236 209 242 242 189 258 155 157 154 139 138 132 86 340 313 319 319 311 307 312 311 303 277 267 283 292 286 295 295 282 279 276 264 261 268 286
181 21 328 291 267 254 230 243 244 256 199 240 236 252 101 122 131 166 146 52 358 313 301 309 317 317 325 327 322 304 270 277 285 291 286 299 304 295 284 290 264 253 266 271
134 187 220 248 235 292 290 289 294 283 251 272 236 270 242 272 197 173 163 320 317 294 289 321 335 338 333 333 337 298 294 296 297 291 291 301 302 304 299 288 279 275 266 268
144 216 214 242 253 262 276 271 267 268 264 254 274 252 261 225 224 228 262 300 296 292 70 51 38 24 13 355 333 313 281 286 280 291 293 294 288 286 288 287 284 276 283 274
180 233 212 256 253 256 267 262 252 250 253 252 263 271 227 263 281 285 277 290 97 82 65 31 352 327 325 321 315 309 300 290 290 267 284 288 287 282 281 270 276 276 279 279
166 195 181 256 227 241 258 250 242 248 246 242 249 257 286 260 255 264 251 102 104 89 51 318 318 317 310 303 300 315 306 294 289 277 283 286 285 280 271 266 267 278 280 275
167 182 191 249 136 227 248 246 213 223 239 234 252 264 271 270 272 143 96 106 106 57 334 326 321 317 318 307 318 298 314 307 287 286 296 284 291 280 268 267 269 269 272 274
183 176 200 218 214 316 295 262 229 220 257 189 209 240 247 121 111 75 81 63 35 351 336 323 313 301 293 308 306 318 307 298 290 291 286 282 282 281 276 270 270 270 269 271
202 200 193 164 221 228 234 79 17 210 260 202 194 112 82 94 113 219 21 355 341 332 319 309 309 302 284 296 301 306 312 293 282 265 271 282 278 274 276 276 270 260 259 261
188 199 212 225 240 252 246 226 90 190 224 82 91 83 72 95 142 341 332 330 323 315 311 304 302 302 298 297 300 311 308 289 283 252 280 280 270 261 271 282 277 268 258 252
177 176 198 214 236 252 209 222 199 178 138 123 111 83 53 360 329 325 324 326 327 321 314 309 307 301 304 297 305 314 301 306 274 258 272 270 250 263 269 278 267 256 258 245
199 195 174 198 209 203 48 201 122 151 150 148 109 19 338 332 334 322 317 317 314 315 316 311 311 319 320 315 319 306 305 303 257 264 266 262 254 265 264 279 267 256 249 232
222 199 220 155 240 187 188 111 122 160 132 83 63 27 346 336 323 315 313 306 299 301 304 300 309 313 319 316 306 294 319 249 253 256 259 242 246 260 260 268 270 239 234 220
184 169 191 240 266 331 198 248 110 80 69 60 47 11 338 315 301 299 295 294 304 285 302 311 316 319 315 308 305 288 299 281 229 237 257 291 235 248 266 254 268 222 210 214
199 179 189 200 182 137 135 60 21 30 10 4 358 340 323 315 319 326 57 318 305 303 310 310 322 327 336 343 316 301 300 290 222 234 254 274 216 207 242 265 276 285 257 215
Height
1491 1495 1497 1489 1483 1481 1481 1484 1487 1476 1467 1470 1471 1471 1467 1462 1460 1458 1459 1462 1464 1465 1468 1470 1473 1474 1475 1475 1479 1484 1488 1491 1493 1495 1496 1496 1496 1496 1497 1496 1496 1498 1499 1499
1495 1496 1481 1478 1476 1479 1480 1484 1486 1475 1468 1471 1473 1472 1462 1457 1453 1451 1451 1455 1461 1464 1467 1469 1472 1474 1478 1478 1481 1483 1486 1488 1491 1492 1494 1494 1495 1494 1494 1494 1492 1492 1492 1493
1494 1481 1476 1479 1480 1481 1482 1483 1484 1483 1474 1469 1472 1472 1461 1449 1448 1442 1440 1447 1455 1458 1461 1465 1469 1471 1475 1479 1482 1483 1485 1487 1489 1490 1491 1491 1491 1491 1489 1489 1490 1489 1487 1487
1485 1477 1479 1480 1483 1479 1486 1473 1476 1478 1486 1497 1477 1501 1467 1449 1444 1447 1444 1449 1453 1458 1461 1463 1467 1470 1474 1478 1481 1483 1483 1485 1486 1486 1487 1487 1486 1486 1486 1485 1484 1484 1483 1481
1484 1476 1479 1481 1478 1473 1479 1473 1477 1480 1487 1491 1480 1497 1467 1448 1446 1450 1450 1450 1454 1458 1460 1463 1467 1471 1474 1477 1480 1482 1482 1482 1483 1483 1482 1482 1480 1479 1478 1477 1477 1477 1478 1477
1474 1468 1470 1469 1467 1468 1469 1474 1477 1478 1485 1509 1476 1490 1475 1455 1443 1449 1451 1454 1457 1460 1464 1468 1472 1474 1476 1479 1480 1481 1480 1479 1478 1478 1477 1477 1474 1472 1471 1469 1469 1471 1471 1472
1471 1468 1462 1461 1470 1469 1471 1481 1506 1502 1504 1503 1465 1476 1464 1445 1438 1436 1443 1450 1455 1460 1465 1469 1473 1475 1476 1477 1476 1477 1477 1476 1474 1474 1474 1473 1471 1467 1465 1464 1463 1463 1464 1465
1485 1487 1460 1457 1463 1471 1472 1481 1503 1507 1504 1488 1469 1480 1460 1444 1440 1441 1447 1451 1457 1461 1465 1468 1471 1472 1474 1475 1475 1475 1474 1473 1471 1470 1468 1468 1466 1463 1461 1460 1459 1458 1457 1456
1477 1472 1456 1456 1459 1465 1474 1483 1474 1486 1481 1490 1477 1459 1451 1447 1447 1447 1450 1453 1457 1461 1464 1468 1470 1471 1470 1470 1470 1470 1470 1469 1467 1463 1463 1461 1459 1457 1458 1455 1454 1453 1451 1450
1464 1475 1458 1457 1459 1461 1466 1466 1488 1488 1500 1499 1474 1468 1465 1455 1453 1452 1454 1455 1459 1462 1464 1465 1465 1465 1465 1465 1465 1465 1464 1463 1461 1460 1458 1455 1453 1452 1454 1453 1450 1449 1449 1447
1470 1471 1467 1461 1464 1470 1470 1474 1475 1480 1486 1499 1499 1481 1451 1453 1451 1453 1455 1456 1457 1459 1459 1460 1460 1461 1461 1461 1460 1458 1457 1456 1457 1456 1451 1450 1449 1448 1445 1448 1447 1444 1443 1444
1478 1480 1485 1472 1464 1462 1463 1467 1470 1482 1483 1479 1489 1456 1441 1444 1446 1449 1451 1453 1454 1455 1455 1456 1457 1457 1456 1456 1455 1452 1451 1450 1451 1450 1446 1444 1444 1443 1441 1439 1440 1440 1440 1439
1474 1486 1492 1472 1465 1458 1467 1458 1458 1459 1464 1467 1480 1461 1440 1443 1445 1447 1449 1450 1451 1453 1453 1452 1451 1451 1451 1450 1449 1449 1448 1447 1446 1444 1443 1441 1438 1436 1436 1434 1434 1435 1436 1436
1468 1481 1475 1471 1464 1460 1467 1461 1460 1464 1479 1459 1454 1444 1448 1441 1445 1446 1446 1447 1447 1446 1446 1445 1447 1447 1446 1445 1444 1448 1444 1445 1443 1441 1439 1437 1435 1432 1431 1430 1429 1430 1431 1431
1469 1473 1471 1463 1463 1464 1460 1457 1463 1463 1453 1462 1432 1443 1439 1440 1441 1441 1441 1441 1440 1441 1441 1443 1443 1443 1441 1441 1442 1444 1441 1439 1438 1437 1435 1433 1430 1429 1427 1425 1424 1424 1425 1425
1469 1468 1469 1463 1462 1460 1459 1445 1451 1447 1445 1445 1438 1424 1432 1432 1433 1434 1435 1435 1435 1436 1437 1437 1438 1439 1438 1438 1438 1437 1436 1434 1433 1429 1428 1428 1425 1422 1421 1420 1419 1418 1420 1419
1467 1470 1469 1456 1453 1456 1455 1434 1433 1430 1427 1433 1435 1415 1426 1427 1429 1428 1428 1428 1430 1433 1433 1433 1434 1435 1435 1435 1433 1431 1429 1428 1426 1424 1422 1420 1417 1415 1414 1414 1414 1413 1414 1414
1456 1466 1467 1458 1458 1456 1418 1413 1414 1416 1412 1416 1417 1417 1418 1420 1420 1424 1424 1425 1429 1430 1430 1431 1430 1431 1432 1430 1429 1427 1423 1421 1420 1417 1417 1414 1412 1410 1409 1408 1408 1406 1406 1408
1442 1454 1455 1454 1449 1433 1415 1411 1411 1412 1406 1403 1409 1411 1412 1415 1420 1425 1423 1424 1425 1426 1426 1425 1425 1425 1427 1424 1424 1422 1418 1416 1413 1410 1413 1410 1406 1406 1404 1402 1401 1401 1400 1399
1438 1441 1446 1447 1443 1434 1412 1406 1404 1404 1407 1399 1402 1407 1407 1409 1422 1424 1422 1421 1422 1422 1424 1423 1423 1421 1420 1417 1415 1415 1412 1407 1405 1405 1404 1403 1399 1400 1398 1396 1395 1395 1395 1394
1434 1436 1432 1431 1428 1422 1407 1405 1406 1418 1408 1402 1403 1406 1408 1412 1416 1417 1418 1418 1418 1419 1419 1420 1418 1417 1415 1412 1409 1407 1406 1401 1398 1396 1395 1395 1394 1394 1393 1390 1391 1390 1390 1389
1417 1422 1421 1425 1423 1414 1398 1400 1405 1403 1401 1402 1404 1406 1409 1411 1412 1413 1415 1416 1415 1415 1413 1414 1412 1411 1409 1407 1405 1404 1400 1399 1395 1394 1392 1390 1389 1390 1388 1387 1387 1385 1385 1384
1409 1397 1404 1409 1401 1393 1395 1392 1394 1399 1401 1403 1404 1405 1407 1408 1409 1410 1411 1412 1412 1412 1410 1408 1406 1404 1404 1403 1402 1399 1396 1391 1389 1390 1389 1385 1386 1386 1385 1384 1384 1382 1382 1382
1390 1391 1396 1398 1391 1391 1393 1396 1396 1400 1400 1401 1403 1403 1405 1406 1406 1407 1407 1407 1407 1407 1404 1403 1402 1399 1398 1398 1397 1394 1392 1388 1385 1388 1385 1384 1383 1384 1383 1382 1381 1380 1380 1380
1380 1380 1385 1387 1385 1391 1394 1395 1397 1398 1399 1399 1401 1401 1402 1402 1402 1403 1403 1402 1401 1400 1396 1398 1398 1394 1393 1392 1391 1387 1387 1383 1384 1384 1382 1380 1380 1384 1381 1380 1379 1378 1379 1380
1372 1377 1381 1385 1381 1387 1393 1392 1393 1395 1397 1397 1399 1399 1400 1399 1398 1396 1396 1396 1397 1397 1394 1393 1391 1389 1388 1386 1385 1383 1379 1375 1381 1381 1380 1380 1380 1380 1380 1379 1378 1377 1378 1379